Location: Newark
(48.0000°N, 67.0000°E)
Time: 00:27:45
(UTC+00:00)

A-11 Canister half - Pass Details

Date: 24 February 2020
Orbit: 1517 x 1683 km, 47.2° (Epoch: 27 March)

Event Time Altitude Azimuth Distance (km) Brightness Sun altitude
Rises 17:18:09 0° 290° (WNW) 4,822 12.4 -40.6°
Reaches altitude 10° 17:21:33 10° 284° (WNW) 3,810 11.6 -41.0°
Enters shadow 17:28:32 36° 241° (WSW) 2,284 9.9 -41.9°
